Location: Fort Hays State University
(38.8712°N, 99.3432°W)
Time: 11:27:25
(UTC-05:00)

Cosmos 2279 Rocket - Visible Passes

Search period start: 23 March 2017 00:00
Search period end: 02 April 2017 00:00
Orbit: 965 x 978 km, 83.0° (Epoch: 21 March)

Date Brightness Start Highest point End Pass type
(mag) Time Alt. Az. Time Alt. Az. Time Alt. Az.
23 Mar 6.6 02:43:13 11° N 02:43:13 11° N 02:43:31 10° N visible
24 Mar 6.7 01:22:40 11° NNE 01:22:40 11° NNE 01:22:49 10° NNE visible
25 Mar 6.6 01:46:42 13° N 01:46:42 13° N 01:47:16 10° N visible
26 Mar 6.6 02:10:42 13° N 02:10:42 13° N 02:11:23 10° N visible
27 Mar 6.6 00:50:08 11° NNE 00:50:08 11° NNE 00:50:22 10° NNE visible
27 Mar 6.6 02:34:43 11° NNW 02:34:43 11° NNW 02:35:05 10° NNW visible
28 Mar 6.5 01:14:08 14° N 01:14:08 14° N 01:14:57 10° N visible
29 Mar 6.4 01:38:07 15° N 01:38:07 15° N 01:39:12 10° N visible
30 Mar 6.5 00:17:31 12° NNE 00:17:31 12° NNE 00:17:52 10° NNE visible
30 Mar 6.5 02:02:06 14° NNW 02:02:06 14° NNW 02:03:04 10° NNW visible
31 Mar 6.3 00:41:29 16° NNE 00:41:29 16° NNE 00:42:35 10° NNE visible
31 Mar 6.6 02:26:03 11° NNW 02:26:03 11° NNW 02:26:23 10° NNW visible
01 Apr 6.3 01:05:26 18° N 01:05:26 18° N 01:06:57 10° N visible
01 Apr 6.4 23:44:47 12° NNE 23:44:47 12° NNE 23:45:17 10° NNE visible
